Temperature
-1 -1 -1 -1 -1 -1 -1 -1 -1 -1 -1 -1 -1 -1 -1 -1 -1 -1 -1 -1 -1 -1 -2 -2 -1 -1 -1 -1 -1 -2 -2 -2 -2 -1 -1 -1 -1 -1 -1 -0 -0 -0 0
-1 -1 -1 -1 -2 -2 -2 -2 -2 -2 -2 -2 -2 -2 -2 -2 -2 -2 -2 -2 -2 -2 -2 -2 -2 -2 -2 -2 -2 -2 -2 -2 -2 -2 -2 -2 -1 -1 -1 -1 -1 -1 -1
-2 -2 -2 -2 -2 -2 -2 -3 -3 -3 -3 -2 -2 -2 -2 -2 -2 -2 -2 -2 -2 -2 -2 -3 -3 -3 -3 -3 -3 -3 -3 -3 -3 -3 -3 -2 -2 -2 -2 -2 -2 -2 -1
-3 -3 -3 -3 -3 -3 -3 -3 -3 -3 -3 -3 -3 -3 -3 -3 -3 -3 -3 -3 -3 -3 -3 -3 -3 -3 -3 -3 -3 -3 -3 -3 -3 -3 -3 -3 -3 -3 -3 -3 -2 -2 -2
-3 -3 -3 -4 -4 -4 -4 -4 -4 -4 -4 -4 -4 -4 -4 -4 -3 -4 -4 -4 -4 -4 -4 -4 -4 -4 -4 -4 -4 -4 -4 -4 -4 -4 -4 -4 -3 -3 -3 -4 -4 -3 -3
-4 -4 -4 -5 -5 -5 -5 -4 -4 -4 -4 -4 -4 -4 -4 -4 -4 -4 -4 -5 -5 -5 -5 -5 -5 -4 -4 -4 -4 -4 -4 -4 -4 -4 -4 -4 -4 -4 -4 -4 -4 -4 -4
-5 -5 -5 -5 -5 -5 -5 -5 -5 -5 -5 -5 -5 -5 -5 -5 -5 -5 -5 -5 -5 -5 -5 -5 -5 -5 -5 -5 -5 -5 -5 -5 -5 -5 -5 -4 -4 -4 -4 -4 -4 -4 -4
-6 -6 -6 -6 -6 -6 -6 -6 -6 -6 -6 -6 -6 -5 -6 -6 -6 -6 -6 -6 -6 -6 -6 -6 -6 -6 -5 -5 -5 -5 -5 -5 -5 -5 -5 -5 -5 -5 -5 -5 -5 -5 -5
-6 -6 -6 -7 -7 -7 -6 -6 -6 -6 -6 -6 -6 -6 -6 -6 -6 -6 -7 -7 -7 -6 -6 -6 -6 -6 -6 -6 -6 -6 -6 -6 -6 -6 -6 -6 -6 -6 -5 -5 -6 -6 -6
-7 -7 -7 -7 -7 -7 -7 -7 -7 -7 -7 -7 -7 -7 -7 -7 -7 -7 -7 -7 -7 -7 -7 -7 -7 -7 -7 -7 -7 -7 -7 -6 -6 -6 -6 -6 -6 -6 -6 -6 -6 -6 -6
-8 -8 -8 -8 -8 -8 -8 -8 -8 -8 -8 -8 -8 -8 -8 -7 -7 -7 -8 -8 -7 -7 -7 -7 -7 -7 -7 -7 -7 -7 -7 -7 -7 -7 -7 -7 -7 -7 -7 -6 -7 -7 -7
-8 -9 -9 -9 -9 -9 -8 -8 -8 -8 -9 -9 -9 -8 -8 -8 -8 -8 -8 -8 -8 -8 -8 -8 -8 -8 -8 -8 -8 -8 -8 -7 -7 -7 -7 -7 -7 -7 -7 -7 -7 -7 -7
-9 -9 -9 -9 -9 -9 -9 -9 -9 -9 -9 -9 -9 -9 -9 -9 -9 -9 -9 -8 -8 -8 -8 -8 -8 -8 -8 -8 -8 -8 -8 -8 -8 -8 -8 -8 -8 -8 -8 -8 -8 -8 -8
-9 -9 -9 -10 -9 -9 -9 -10 -10 -10 -10 -10 -10 -10 -9 -9 -9 -9 -9 -9 -9 -9 -9 -8 -8 -8 -8 -9 -9 -9 -9 -8 -8 -8 -8 -8 -8 -8 -8 -8 -8 -8 -8
-10 -10 -10 -10 -10 -10 -10 -10 -10 -10 -10 -10 -10 -10 -10 -10 -9 -9 -9 -9 -9 -9 -9 -9 -9 -9 -9 -9 -9 -9 -9 -9 -9 -9 -9 -9 -9 -9 -9 -9 -9 -9 -9
-10 -10 -10 -10 -10 -11 -11 -10 -10 -10 -10 -10 -10 -10 -10 -10 -10 -9 -9 -9 -9 -9 -9 -9 -9 -9 -9 -9 -9 -9 -9 -9 -9 -9 -9 -9 -10 -10 -10 -10 -10 -10 -10
-11 -11 -11 -11 -11 -11 -11 -11 -11 -10 -10 -10 -10 -10 -10 -10 -10 -10 -10 -10 -10 -10 -10 -9 -10 -10 -10 -10 -10 -10 -10 -10 -10 -10 -10 -10 -10 -10 -10 -10 -10 -10 -10
-11 -11 -11 -11 -11 -11 -11 -11 -11 -11 -11 -11 -10 -10 -10 -10 -10 -10 -10 -10 -10 -10 -10 -10 -10 -10 -10 -10 -10 -10 -10 -10 -10 -10 -10 -10 -10 -11 -11 -11 -11 -11 -11
-11 -11 -11 -11 -11 -11 -11 -11 -11 -11 -11 -11 -11 -11 -11 -11 -11 -10 -11 -11 -11 -11 -10 -10 -10 -10 -10 -10 -10 -10 -10 -11 -11 -11 -11 -11 -11 -11 -11 -11 -11 -11 -12
-12 -12 -12 -12 -12 -12 -12 -12 -12 -12 -12 -12 -11 -11 -11 -11 -11 -11 -11 -11 -11 -11 -11 -11 -11 -11 -11 -11 -11 -11 -11 -11 -11 -11 -11 -11 -11 -12 -12 -12 -12 -12 -12
-12 -12 -12 -12 -12 -12 -12 -12 -12 -12 -12 -12 -12 -12 -12 -12 -12 -12 -11 -11 -11 -11 -11 -11 -11 -11 -11 -11 -11 -11 -11 -11 -11 -12 -12 -12 -12 -12 -12 -12 -12 -12 -12
-13 -12 -12 -12 -12 -12 -13 -13 -13 -13 -13 -13 -12 -12 -12 -12 -12 -12 -12 -12 -12 -12 -12 -12 -12 -11 -12 -12 -11 -12 -12 -12 -12 -12 -12 -12 -12 -12 -12 -12 -12 -12 -12
-13 -13 -13 -13 -13 -13 -13 -13 -13 -13 -13 -13 -13 -13 -13 -13 -12 -13 -13 -12 -12 -12 -12 -12 -12 -12 -12 -12 -12 -12 -12 -12 -12 -12 -12 -12 -12 -12 -12 -12 -12 -12 -13
-14 -14 -13 -13 -14 -14 -14 -14 -14 -14 -14 -14 -14 -13 -13 -13 -13 -13 -13 -13 -13 -12 -12 -12 -12 -12 -12 -12 -12 -12 -12 -12 -12 -12 -12 -12 -13 -13 -13 -12 -12 -13 -13
-14 -14 -14 -14 -14 -14 -14 -14 -14 -14 -14 -14 -14 -14 -14 -14 -14 -13 -13 -13 -13 -13 -13 -12 -12 -12 -12 -12 -12 -12 -12 -12 -12 -12 -12 -13 -13 -13 -13 -13 -13 -13 -13
-15 -15 -14 -14 -15 -15 -15 -15 -15 -15 -15 -15 -14 -14 -14 -14 -14 -14 -14 -14 -14 -13 -13 -13 -13 -13 -12 -12 -12 -12 -12 -12 -12 -12 -13 -13 -13 -13 -13 -13 -13 -13 -13
Wind_Speed
5 5 5 5 5 5 5 6 6 5 5 6 6 5 6 5 5 5 5 6 6 6 5 6 6 5 5 4 4 4 4 4 6 5 4 3 4 4 5 6 7 8 8
5 4 5 5 5 5 6 5 5 5 5 6 5 5 6 5 5 6 6 6 7 7 7 7 7 5 6 5 5 5 5 5 6 7 5 4 5 5 4 4 6 7 7
4 4 4 5 5 6 6 5 5 5 5 5 5 6 6 6 6 6 6 7 7 8 7 8 7 7 7 6 6 6 6 5 5 5 6 4 4 4 4 4 5 5 7
3 4 4 5 6 6 5 5 6 6 6 6 6 6 6 7 7 7 7 7 7 7 7 7 7 8 8 8 7 7 6 6 5 5 5 4 4 4 4 4 5 4 5
3 4 5 5 5 5 5 6 6 6 7 6 6 6 6 7 7 7 7 7 7 7 7 7 8 9 10 9 7 6 6 6 5 6 5 5 5 5 5 4 5 4 5
4 5 5 5 5 5 5 6 6 6 6 6 7 7 7 7 10 12 9 7 7 7 7 7 7 8 10 11 12 11 9 8 8 7 7 7 7 6 5 5 5 5 5
5 5 5 5 6 6 6 6 6 7 6 7 7 7 8 9 12 12 12 8 7 7 7 7 6 7 8 7 9 10 10 11 11 9 8 8 7 6 6 6 7 7 7
5 5 5 5 6 6 5 6 6 6 6 6 7 7 8 9 12 12 12 8 7 7 8 8 8 7 7 7 7 7 7 8 9 8 8 8 8 7 8 7 7 6 5
5 6 5 5 6 6 6 7 6 5 6 6 6 7 8 9 11 11 11 6 6 7 8 8 8 8 11 11 7 7 7 7 9 10 11 11 11 11 9 5 5 5 6
6 6 6 5 6 6 7 7 5 5 6 6 6 6 7 8 11 12 11 6 7 6 6 8 11 11 12 12 8 7 8 8 6 6 6 7 7 7 9 7 6 6 5
6 5 5 5 6 6 6 5 5 5 5 5 6 6 7 8 10 12 12 7 7 7 7 7 8 12 13 12 11 8 10 7 5 5 4 4 4 4 5 6 6 6 6
5 5 5 5 5 5 5 5 5 5 6 6 6 6 6 7 9 11 13 12 10 8 7 6 7 12 12 12 10 10 10 8 4 4 4 5 4 4 4 5 5 5 6
4 5 5 5 5 5 5 5 5 5 5 6 6 6 5 5 7 11 13 13 13 8 7 10 11 12 11 9 10 10 8 5 4 5 5 5 4 4 4 3 3 4 4
4 5 4 4 4 4 4 4 5 5 6 6 6 6 5 5 5 6 6 7 9 8 6 9 11 11 9 8 8 6 5 5 5 5 5 4 3 3 4 4 4 3 3
4 4 4 4 4 4 4 4 5 6 7 7 6 6 6 6 8 10 8 6 6 6 5 4 4 4 5 5 5 5 4 5 5 5 5 5 4 4 4 4 3 3 4
4 4 3 3 3 3 4 4 6 6 8 9 9 8 7 9 10 11 11 10 10 9 6 5 6 6 6 6 6 6 5 6 6 5 5 5 5 5 5 4 4 4 5
4 4 3 3 3 3 4 4 4 5 6 7 8 8 8 8 9 9 9 9 9 8 6 5 6 6 6 6 6 6 6 6 6 6 6 6 6 5 5 5 5 5 5
5 5 4 3 3 3 3 3 3 3 4 4 6 7 7 8 8 7 7 5 5 5 5 5 6 6 6 6 6 6 6 6 5 6 6 6 6 6 6 6 6 6 6
4 3 3 3 3 3 3 2 3 3 3 4 4 5 7 6 6 6 5 3 4 4 4 5 5 5 6 6 6 6 6 6 6 6 6 6 6 6 6 6 6 8 7
4 5 4 3 2 2 2 2 3 3 3 4 4 4 4 3 3 4 3 3 4 4 4 4 5 5 5 6 6 6 6 6 6 6 6 6 6 6 7 7 7 7 6
4 4 5 3 2 2 2 2 2 2 3 3 4 5 6 3 3 3 4 3 3 4 4 4 5 5 5 5 5 6 6 6 6 6 6 6 6 6 6 6 7 7 6
4 3 3 3 2 2 2 2 2 2 3 3 3 4 6 3 3 3 3 3 3 3 4 4 4 4 5 5 6 6 6 7 7 6 6 6 6 6 6 6 6 6 6
4 3 3 3 2 3 3 2 2 2 3 3 3 4 4 3 3 3 4 4 3 3 3 4 4 4 5 6 7 7 7 7 7 7 7 7 7 7 7 7 7 7 7
4 3 3 3 2 2 2 2 2 3 3 3 3 3 3 3 3 4 4 4 4 4 4 4 4 6 7 7 7 8 9 9 9 8 9 8 8 7 7 7 7 8 7
3 3 3 3 2 2 2 3 3 3 3 3 3 3 3 3 4 4 4 4 4 4 5 5 5 5 7 8 8 8 10 11 11 9 9 9 9 8 8 7 7 7 7
3 3 3 2 2 2 2 3 3 3 3 4 4 4 4 4 4 4 4 4 4 4 5 5 5 6 7 7 9 10 11 12 12 12 9 8 8 8 7 7 7 7 7
Wind_Direction
218 221 223 220 220 220 224 229 228 229 223 223 226 226 226 231 230 223 226 218 220 227 231 228 233 232 232 230 227 228 236 239 252 267 263 261 255 262 284 283 281 275 272
222 221 224 222 218 220 227 233 231 230 228 226 223 229 230 230 230 225 225 222 220 224 227 227 234 234 234 229 226 230 234 235 244 259 267 262 261 247 256 269 278 274 270
230 226 231 229 224 224 229 232 229 228 231 231 224 226 231 230 233 234 229 226 225 226 225 225 229 227 234 234 228 231 235 239 242 245 256 259 266 253 253 274 276 275 271
247 242 239 236 232 231 231 231 230 226 226 229 234 231 235 233 236 237 232 229 225 229 230 230 227 228 230 232 233 232 231 232 236 238 246 250 254 250 242 257 272 270 275
256 254 253 251 244 239 235 231 231 229 228 230 234 237 237 236 234 233 229 229 226 227 231 233 234 235 237 235 236 229 225 228 231 238 241 249 244 238 239 248 265 274 275
256 257 259 253 248 243 240 234 230 227 228 230 232 234 238 241 239 236 232 229 229 228 232 237 240 242 245 245 245 241 232 224 223 233 243 237 239 240 240 249 255 270 272
263 262 258 249 247 246 244 240 235 229 228 232 234 233 236 242 238 237 237 230 229 228 227 231 239 241 243 242 246 248 249 249 239 234 235 238 237 234 234 245 250 255 261
269 267 260 250 248 248 245 243 241 236 229 231 235 235 239 242 239 237 237 233 230 230 229 227 231 236 237 237 236 241 246 250 251 247 242 242 240 229 226 235 246 262 276
271 271 266 254 250 247 245 244 242 237 237 236 237 234 236 244 240 238 238 229 229 232 232 228 227 232 238 238 233 238 248 255 258 256 257 254 252 250 237 226 234 247 267
272 274 272 262 252 245 245 245 245 238 238 239 243 239 235 241 240 239 237 227 228 232 234 232 234 235 237 237 228 228 240 246 246 253 256 258 252 249 244 226 221 234 254
276 275 271 266 257 250 250 245 238 236 237 238 243 245 240 241 240 240 237 227 224 228 233 234 235 238 240 240 240 235 241 242 235 235 241 246 248 246 236 229 223 224 237
273 270 269 268 264 259 248 245 235 228 232 237 240 245 245 243 243 241 240 239 235 229 233 234 234 237 241 242 244 244 247 248 232 228 234 237 240 247 243 231 238 241 242
273 269 271 273 269 262 250 242 238 229 230 235 234 239 244 242 241 243 244 246 242 237 236 235 236 238 240 243 246 246 244 240 224 227 234 237 237 238 240 235 240 249 264
274 274 273 272 272 265 256 241 236 232 232 235 235 239 243 244 242 241 239 242 244 241 242 240 240 242 240 238 239 244 236 227 222 225 230 235 231 230 241 235 243 247 262
278 273 272 269 266 266 264 251 247 243 238 239 239 238 238 244 246 246 244 239 233 234 232 237 235 230 230 229 228 230 228 223 228 223 223 227 230 234 244 236 236 245 251
280 276 269 264 261 261 268 278 270 263 261 258 255 253 250 252 257 255 252 252 250 241 235 231 231 228 227 225 225 226 224 222 221 221 220 223 226 229 240 240 231 235 246
273 275 269 260 258 261 263 264 279 284 273 267 265 263 263 264 263 260 257 257 252 244 241 233 231 226 226 225 224 224 227 224 218 218 221 221 222 226 232 236 231 234 244
287 280 276 260 261 264 264 261 262 268 279 284 279 273 275 276 273 269 265 265 251 241 233 233 230 227 225 226 225 225 225 222 219 220 220 220 218 222 229 234 229 230 240
293 285 276 266 263 267 269 266 266 266 273 286 297 289 285 285 280 273 267 248 245 245 240 238 237 232 230 227 225 224 221 220 219 219 219 219 219 219 228 233 233 241 245
294 292 298 285 272 273 270 269 272 275 280 280 279 287 290 287 281 276 272 261 252 250 245 243 243 237 231 227 224 220 221 221 218 219 221 221 220 220 226 232 232 234 238
304 305 310 308 290 275 269 265 268 274 280 285 287 288 291 290 281 281 281 275 264 256 249 247 246 238 231 227 222 219 219 224 220 218 221 222 220 223 227 231 231 233 235
315 315 311 305 302 293 291 282 282 283 286 290 300 303 300 309 297 290 289 287 281 270 252 243 244 238 227 223 219 218 221 225 223 218 219 222 223 224 228 230 231 230 230
321 319 317 313 307 300 308 307 296 293 293 294 296 303 303 303 301 300 299 300 298 290 270 248 242 237 234 230 224 216 219 223 222 216 215 219 223 225 226 228 225 227 231
322 319 315 314 313 308 306 305 303 299 300 300 300 302 305 308 305 304 306 306 305 300 287 269 249 240 243 242 237 232 231 234 231 222 215 217 223 228 226 223 224 227 231
318 315 312 309 309 310 310 309 309 309 308 305 304 307 313 313 310 311 311 310 308 304 299 290 272 254 246 246 244 241 240 240 241 233 220 217 220 223 224 221 224 228 234
322 316 315 316 313 310 307 306 306 308 309 309 310 312 312 310 310 312 313 313 314 311 305 297 288 273 254 248 249 252 250 246 244 241 230 217 215 218 218 222 224 228 234
Height
1459 1459 1460 1460 1461 1462 1462 1463 1465 1466 1467 1467 1468 1469 1470 1471 1473 1474 1475 1476 1477 1478 1480 1481 1482 1483 1484 1485 1486 1487 1488 1488 1487 1486 1488 1489 1489 1490 1491 1491 1492 1492 1492
1454 1454 1454 1454 1455 1455 1456 1457 1459 1459 1461 1461 1462 1463 1464 1465 1466 1468 1469 1470 1471 1472 1473 1475 1476 1477 1478 1479 1480 1481 1482 1483 1483 1481 1482 1483 1483 1484 1485 1485 1486 1486 1487
1449 1449 1449 1449 1449 1449 1450 1451 1452 1453 1454 1455 1456 1457 1458 1459 1461 1462 1463 1464 1465 1466 1467 1468 1470 1471 1472 1473 1474 1475 1476 1477 1477 1477 1476 1477 1478 1479 1479 1479 1480 1480 1481
1444 1443 1443 1443 1443 1443 1444 1445 1446 1447 1448 1449 1450 1451 1452 1453 1454 1456 1457 1458 1459 1460 1461 1462 1463 1464 1465 1467 1468 1468 1470 1470 1471 1471 1471 1471 1472 1473 1474 1474 1474 1474 1474
1439 1438 1438 1438 1438 1438 1438 1439 1440 1441 1442 1443 1444 1444 1446 1447 1448 1449 1451 1451 1452 1453 1454 1456 1457 1458 1459 1461 1462 1462 1464 1464 1465 1465 1465 1466 1466 1467 1468 1468 1469 1468 1468
1433 1433 1432 1432 1432 1432 1432 1433 1434 1434 1435 1436 1437 1438 1439 1440 1442 1443 1445 1445 1446 1447 1448 1449 1451 1452 1452 1454 1455 1456 1458 1458 1458 1459 1459 1459 1460 1462 1462 1463 1463 1463 1462
1428 1427 1427 1426 1426 1426 1427 1427 1427 1428 1429 1430 1431 1432 1432 1434 1435 1437 1438 1439 1440 1441 1442 1443 1444 1445 1446 1447 1448 1450 1451 1452 1453 1454 1453 1453 1454 1456 1457 1457 1457 1457 1456
1423 1422 1421 1421 1420 1420 1421 1421 1421 1422 1423 1423 1424 1425 1426 1427 1429 1431 1432 1433 1434 1435 1436 1437 1438 1439 1440 1441 1442 1443 1444 1445 1446 1447 1447 1448 1449 1451 1452 1452 1452 1451 1451
1418 1417 1416 1416 1415 1415 1414 1415 1415 1416 1416 1417 1418 1419 1420 1421 1423 1424 1426 1427 1427 1428 1430 1431 1432 1433 1434 1436 1436 1436 1437 1438 1439 1440 1441 1442 1443 1444 1445 1446 1446 1446 1445
1413 1412 1411 1410 1410 1409 1409 1409 1410 1410 1410 1411 1412 1413 1414 1415 1416 1418 1420 1421 1421 1422 1423 1424 1426 1427 1428 1429 1430 1430 1430 1431 1433 1433 1434 1435 1436 1437 1438 1439 1439 1440 1439
1408 1407 1406 1405 1405 1404 1404 1404 1404 1405 1405 1405 1406 1407 1408 1409 1410 1412 1413 1415 1415 1416 1417 1418 1419 1420 1422 1423 1424 1424 1425 1426 1426 1427 1428 1428 1429 1430 1431 1432 1433 1433 1433
1403 1402 1401 1400 1400 1399 1399 1399 1399 1399 1399 1400 1400 1400 1401 1403 1404 1405 1407 1409 1410 1410 1411 1412 1413 1414 1415 1416 1417 1418 1419 1420 1421 1421 1421 1422 1422 1423 1424 1425 1425 1426 1426
1398 1397 1396 1395 1395 1394 1394 1393 1394 1394 1394 1394 1394 1394 1395 1397 1398 1400 1401 1402 1403 1404 1405 1406 1407 1408 1409 1410 1411 1412 1413 1414 1414 1414 1415 1415 1416 1417 1418 1419 1419 1419 1419
1394 1392 1392 1391 1390 1389 1389 1389 1388 1388 1388 1389 1389 1389 1390 1391 1392 1393 1394 1396 1397 1398 1399 1400 1401 1402 1403 1403 1404 1405 1406 1407 1408 1408 1409 1409 1410 1411 1411 1412 1412 1412 1412
1390 1389 1387 1387 1386 1385 1384 1384 1384 1383 1384 1384 1384 1385 1385 1385 1386 1388 1389 1390 1391 1392 1392 1393 1394 1395 1395 1396 1397 1398 1399 1400 1401 1402 1403 1403 1404 1404 1405 1406 1406 1405 1405
1386 1385 1383 1382 1382 1381 1380 1379 1379 1380 1380 1380 1380 1380 1380 1381 1382 1382 1383 1384 1385 1386 1387 1386 1387 1388 1388 1389 1390 1391 1392 1393 1394 1395 1396 1397 1397 1398 1398 1399 1399 1399 1399
1382 1381 1380 1379 1378 1377 1376 1375 1374 1374 1374 1375 1375 1375 1376 1376 1377 1377 1377 1378 1379 1380 1380 1379 1380 1380 1381 1382 1383 1384 1385 1386 1387 1388 1389 1390 1391 1391 1391 1392 1392 1392 1392
1379 1377 1376 1375 1374 1373 1373 1372 1371 1370 1369 1368 1369 1370 1370 1371 1371 1371 1372 1372 1372 1372 1372 1373 1373 1374 1374 1375 1376 1377 1378 1379 1380 1381 1382 1383 1384 1384 1385 1385 1385 1385 1386
1375 1374 1373 1372 1371 1370 1369 1369 1368 1367 1366 1365 1365 1365 1365 1365 1365 1366 1366 1366 1365 1365 1366 1366 1366 1367 1368 1368 1369 1370 1371 1371 1372 1374 1375 1376 1377 1378 1378 1378 1379 1379 1379
1373 1371 1370 1369 1368 1367 1366 1365 1365 1364 1363 1362 1361 1361 1361 1360 1360 1360 1360 1360 1359 1359 1359 1359 1360 1360 1361 1361 1362 1363 1363 1364 1365 1366 1368 1369 1370 1371 1371 1372 1372 1373 1373
1370 1369 1367 1366 1365 1364 1363 1362 1362 1361 1360 1359 1358 1358 1358 1357 1356 1355 1354 1354 1354 1353 1353 1353 1353 1353 1354 1354 1355 1356 1356 1357 1358 1360 1361 1362 1363 1364 1365 1366 1366 1367 1367
1368 1366 1365 1363 1362 1361 1360 1359 1359 1358 1357 1356 1355 1354 1354 1353 1352 1351 1350 1349 1348 1347 1347 1346 1346 1346 1347 1348 1348 1349 1349 1350 1352 1353 1354 1355 1357 1358 1359 1360 1360 1361 1361
1366 1364 1363 1361 1360 1359 1358 1357 1356 1355 1354 1353 1352 1351 1350 1349 1348 1346 1345 1344 1343 1342 1341 1340 1339 1339 1340 1341 1342 1342 1343 1344 1345 1347 1348 1349 1350 1352 1353 1353 1354 1355 1355
1364 1362 1361 1359 1358 1357 1356 1354 1353 1352 1351 1350 1349 1348 1347 1345 1344 1343 1341 1340 1338 1337 1335 1334 1334 1333 1334 1334 1335 1336 1337 1338 1339 1340 1341 1342 1343 1345 1346 1347 1348 1349 1350
1362 1360 1359 1357 1356 1355 1354 1352 1351 1350 1349 1348 1347 1345 1344 1342 1341 1339 1338 1336 1334 1332 1330 1329 1328 1328 1328 1328 1329 1330 1331 1332 1333 1334 1335 1336 1337 1338 1340 1341 1342 1343 1344
1360 1359 1357 1356 1355 1353 1352 1351 1349 1348 1347 1345 1344 1343 1341 1340 1338 1337 1335 1333 1330 1328 1326 1325 1324 1323 1323 1323 1324 1324 1325 1326 1327 1328 1329 1330 1331 1332 1334 1335 1336 1337 1338